Flag for U.S.A. Weather past 2 weeks in Palestine, Texas, U.S.A.

Now
74 °F

Passing clouds.


Feels Like: 76 °F
Forecast: 71 / 90 °F
Wind: 5 mph from Southwest

Location: Cherokee County Airport

Current Time: Aug 30, 2015 at 6:03:16 AM

Latest Report: Aug 30, 2015 at 5:35 AM


Visibility: 10 mi

Pressure: 30.03 "Hg

Humidity: 69%

Dew point: 64 °F

Location of PalestineLocation

Historic Weather in Palestine — Graph

°F

Palestine temperature yesterday

Maximum temperature yesterday: 92 °F (at 3:55 PM)
Minimum temperature yesterday: 72 °F (at 7:35 AM)
Average temperature yesterday: 82 °F

Past Weeks' High & Low Weather Summary

 TemperatureHumidityPressure
High98 °F (Aug 24, 3:35 PM)97% (Aug 20, 7:35 AM)30.19 "Hg (Aug 20, 7:35 AM)
Low67 °F (Aug 28, 7:15 AM)24% (Aug 15, 5:15 PM)29.79 "Hg (Aug 18, 6:55 PM)
Average81 °F66%30.02 "Hg
* Reported Aug 15 4:15 AM — Aug 30 4:55 AM, Palestine, Weather by CustomWeather, © 2015

Note: Actual official high and low records may vary slightly from our data, if they occured in-between our weather recording intervals... More about our weather records

Advertising

Palestine weather history for previous 24 hours

 ConditionsComfort  
Time TempWeatherWind HumidityBarometerVisibility
4:55 AM
Sun, Aug 30
75 °FClear.7 mph67%30.03 "Hg10 mi
4:35 AM75 °FClear.6 mph67%30.02 "Hg10 mi
4:15 AM75 °FClear.7 mph65%30.02 "Hg10 mi
3:55 AM75 °FClear.7 mph65%30.02 "Hg10 mi
3:35 AM76 °FClear.6 mph65%30.02 "Hg10 mi
3:15 AM75 °FClear.5 mph65%30.02 "Hg10 mi
2:55 AM76 °FClear.5 mph65%30.02 "Hg10 mi
2:35 AM76 °FPassing clouds.6 mph64%30.03 "Hg10 mi
2:15 AM76 °FPassing clouds.6 mph63%30.03 "Hg10 mi
1:55 AM77 °FClear.7 mph62%30.03 "Hg10 mi
1:35 AM77 °FClear.8 mph62%30.03 "Hg10 mi
1:15 AM78 °FClear.6 mph59%30.03 "Hg10 mi
12:55 AM78 °FClear.8 mph58%30.03 "Hg10 mi
12:35 AM78 °FClear.8 mph58%30.03 "Hg10 mi
12:15 AM78 °FClear.7 mph58%30.03 "Hg10 mi
11:55 PM
Sat, Aug 29
79 °FClear.7 mph57%30.04 "Hg10 mi
11:35 PM79 °FClear.8 mph55%30.03 "Hg10 mi
10:55 PM80 °FClear.7 mph54%30.04 "Hg10 mi
10:35 PM80 °FClear.6 mph53%30.03 "Hg10 mi
10:15 PM81 °FClear.6 mph50%30.03 "Hg10 mi
9:55 PM82 °FPassing clouds.5 mph48%30.03 "Hg10 mi
9:35 PM82 °FPassing clouds.6 mph47%30.02 "Hg10 mi
9:15 PM82 °FClear.5 mph50%30.01 "Hg10 mi
8:55 PM83 °FClear.3 mph49%30.00 "Hg10 mi
8:15 PM85 °FSunny.3 mph47%29.99 "Hg10 mi
7:55 PM86 °FSunny.No wind44%29.99 "Hg10 mi
7:35 PM87 °FSunny.No wind43%29.99 "Hg10 mi
7:15 PM88 °FSunny.3 mph40%29.99 "Hg10 mi
6:55 PM90 °FSunny.3 mph37%30.00 "Hg10 mi
6:35 PM90 °FSunny.6 mph37%30.00 "Hg10 mi
6:15 PM91 °FSunny.6 mph37%29.99 "Hg10 mi
5:55 PM91 °FScattered clouds.3 mph37%30.00 "Hg10 mi
5:35 PM91 °FScattered clouds.5 mph38%30.00 "Hg10 mi
4:55 PM91 °FPartly sunny.6 mph40%30.01 "Hg10 mi
4:35 PM91 °FPartly sunny.3 mph39%30.01 "Hg10 mi
4:15 PM91 °FPartly sunny.No wind37%30.01 "Hg10 mi
3:55 PM92 °FScattered clouds.6 mph36%30.02 "Hg10 mi
3:35 PM91 °FBroken clouds.5 mph36%30.03 "Hg10 mi
3:15 PM90 °FPartly sunny.3 mph38%30.03 "Hg10 mi
2:55 PM90 °FPartly sunny.No wind38%30.04 "Hg10 mi
2:35 PM90 °FScattered clouds.7 mph40%30.05 "Hg10 mi
2:15 PM90 °FSunny.5 mph38%30.05 "Hg10 mi
1:55 PM90 °FSunny.6 mph40%30.06 "Hg10 mi
1:35 PM89 °FScattered clouds.8 mph41%30.06 "Hg10 mi
1:15 PM89 °FScattered clouds.3 mph42%30.07 "Hg10 mi
12:55 PM89 °FScattered clouds.9 mph43%30.08 "Hg10 mi
12:35 PM88 °FScattered clouds.7 mph46%30.08 "Hg10 mi
12:15 PM87 °FSunny.6 mph46%30.08 "Hg10 mi
11:55 AM86 °FSunny.No wind51%30.09 "Hg10 mi
11:35 AM85 °FSunny.7 mph52%30.09 "Hg10 mi
11:15 AM85 °FSunny.8 mph55%30.09 "Hg10 mi
10:55 AM83 °FSunny.8 mph59%30.10 "Hg10 mi
10:35 AM83 °FSunny.8 mph59%30.09 "Hg10 mi
10:15 AM82 °FSunny.6 mph63%30.08 "Hg10 mi
9:55 AM81 °FSunny.8 mph65%30.09 "Hg10 mi
9:35 AM80 °FSunny.7 mph68%30.09 "Hg10 mi
9:15 AM77 °FSunny.6 mph74%30.09 "Hg10 mi
8:55 AM75 °FSunny.No wind80%30.09 "Hg10 mi
8:35 AM74 °FSunny.5 mph81%30.09 "Hg10 mi
8:15 AM72 °FSunny.5 mph85%30.08 "Hg10 mi
7:55 AM72 °FSunny.5 mph86%30.08 "Hg10 mi
7:35 AM72 °FClear.6 mph86%30.07 "Hg10 mi
6:55 AM72 °FClear.3 mph84%30.06 "Hg10 mi
6:35 AM72 °FClear.5 mph83%30.06 "Hg10 mi
6:15 AM73 °FClear.5 mph82%30.05 "Hg10 mi
Weather by CustomWeather, © 2015

See weather overviewHow to use our weather pages